{"data":{"norad_id":55149,"epoch":"2026-09-19T10:37:52.290048Z","epoch_age_seconds":113217,"freshness":"FRESH","line1":"1 55149U 23004K   26262.44296632 -.00000065  00000+0 -19847-3 0  9991","line2":"2 55149  87.9161 316.7354 0001942 112.2970 247.8369 13.18686214182117","mean_motion":13.18686214,"eccentricity":0.0001942,"inclination_deg":87.9161,"raan_deg":316.7354,"arg_perigee_deg":112.297,"mean_anomaly_deg":247.8369,"bstar":-0.00019847,"rev_number":18211,"period_min":109.19959462016,"perigee_km":1188.2726259478,"apogee_km":1191.2119902711,"semimajor_km":7567.8793081094,"source":"CELESTRAK","updated_at":"2026-09-20T09:00:44.751875Z"}}